Location: Borojevi?i
(45.0486°N, 16.2297°E)
Time: 16:13:07
(UTC+00:00)

Lacrosse 5 - Pass Details

Date: 08 August 2020
Orbit: 717 x 720 km, 57.0° (Epoch: 18 September)

Event Time Altitude Azimuth Distance (km) Brightness Sun altitude
Rises 19:55:18 0° 309° (NW) 3,128 7.0 -16.0°
Reaches altitude 10° 19:57:58 10° 320° (NW) 2,207 5.7 -16.4°
Maximum altitude 20:02:25 30° 21° (NNE) 1,287 3.4 -16.9°
Enters shadow 20:06:22 12° 79° (E) 2,044 3.9 -17.4°
